Weather History for Tampa Knight Airport, FL

Change the Weather History Date:

Thursday, September 5, 2013

  Actual Average (KTPA) Record (KTPA)
Temperature  
Mean Temperature 82 °F 83 °F  
Max Temperature 91 °F 90 °F 96 °F (1941)
Min Temperature 73 °F 76 °F 68 °F (1909)
Degree Days  
Heating Degree Days 0 0  
Month to date heating degree days 0  
Since 1 July heating degree days 0  
Cooling Degree Days 17 18  
Month to date cooling degree days 90  
Year to date cooling degree days 2605  
Growing Degree Days 32 (Base 50)    
Moisture  
Dew Point 71 °F    
Average Humidity 72    
Maximum Humidity 94    
Minimum Humidity 49    
Precipitation  
Precipitation 0.00 in 0.25 in 5.75 in (1933)
Month to date precipitation 1.27  
Year to date precipitation 34.99  
Sea Level Pressure  
Sea Level Pressure 30.06 in    
Wind  
Wind Speed 5 mph (East)    
Max Wind Speed 10 mph    
Max Gust Speed -    
Visibility 10 miles    
Events Rain    
T = Trace of Precipitation, MM = Missing Value Source: NWS Daily Summary

Daily Weather History Graph

Daily Weather History Graph

Search for Another Location

Airport:

Trip Planner

Search our weather history database for the weather conditions in past years. The results will help you decide how hot, cold, wet, or windy it might be!

Date:

Astronomy

Sep. 05, 2013 Rise Set
Actual Time 7:10 AM EDT 7:45 PM EDT
Civil Twilight 6:46 AM EDT 8:09 PM EDT
Nautical Twilight 6:18 AM EDT 8:37 PM EDT
Astronomical Twilight 5:50 AM EDT 9:05 PM EDT
Moon 7:15 AM EDT (9/5) 7:44 PM EDT (9/5)
Length of Visible Light 13h 22m
Length of Day
12h 35m
New Moon, 0% of the Moon is Illuminated
Sep 5
New Moon
Sep 12
First Quarter
Sep 19
Full
Sep 26
Last Quarter
Oct 4
New

Hourly Weather History & Observations

Time (EDT) Temp. Heat Index Dew Point Humidity Pressure Visibility Wind Dir Wind Speed Gust Speed Precip Events Conditions
12:35 AM 73.4 °F - 71.6 °F 94% 30.08 in 10.0 mi NE 8.1 mph - N/A   Clear
12:55 AM 73.4 °F - 71.6 °F 94% 30.06 in 10.0 mi ENE 6.9 mph - N/A   Clear
1:15 AM 75.2 °F - 71.6 °F 89% 30.06 in 10.0 mi ENE 4.6 mph - N/A   Clear
1:35 AM 75.2 °F - 71.6 °F 89% 30.06 in 10.0 mi East 4.6 mph - N/A   Clear
1:55 AM 75.2 °F - 71.6 °F 89% 30.06 in 10.0 mi East 5.8 mph - N/A   Clear
2:15 AM 75.2 °F - 69.8 °F 83% 30.05 in 10.0 mi NE 5.8 mph - N/A   Clear
2:35 AM 73.4 °F - 71.6 °F 94% 30.05 in 10.0 mi Calm Calm - N/A   Clear
2:55 AM 73.4 °F - 69.8 °F 88% 30.05 in 10.0 mi ENE 6.9 mph - N/A   Clear
3:15 AM 75.2 °F - 69.8 °F 83% 30.05 in 10.0 mi East 6.9 mph - N/A   Clear
3:35 AM 75.2 °F - 71.6 °F 89% 30.05 in 10.0 mi ENE 5.8 mph - N/A   Clear
3:55 AM 75.2 °F - 69.8 °F 83% 30.05 in 10.0 mi ENE 6.9 mph - N/A   Clear
4:15 AM 75.2 °F - 69.8 °F 83% 30.04 in 10.0 mi NE 4.6 mph - N/A   Clear
4:35 AM 75.2 °F - 69.8 °F 83% 30.05 in 10.0 mi NE 5.8 mph - N/A   Clear
4:55 AM 75.2 °F - 69.8 °F 83% 30.05 in 10.0 mi NE 6.9 mph - N/A   Clear
5:15 AM 73.4 °F - 69.8 °F 88% 30.05 in 10.0 mi NE 6.9 mph - N/A   Clear
5:35 AM 73.4 °F - 69.8 °F 88% 30.06 in 10.0 mi NE 8.1 mph - N/A   Clear
5:55 AM 73.4 °F - 68.0 °F 83% 30.06 in 10.0 mi NE 8.1 mph - N/A   Clear
6:15 AM 73.4 °F - 69.8 °F 88% 30.06 in 10.0 mi ENE 6.9 mph - N/A   Clear
6:35 AM 73.4 °F - 69.8 °F 88% 30.06 in 10.0 mi NE 6.9 mph - N/A   Clear
6:55 AM 73.4 °F - 69.8 °F 88% 30.07 in 10.0 mi NE 5.8 mph - N/A   Clear
7:15 AM 73.4 °F - 69.8 °F 88% 30.07 in 10.0 mi NE 8.1 mph - N/A   Clear
7:35 AM 73.4 °F - 68.0 °F 83% 30.08 in 10.0 mi ENE 6.9 mph - N/A   Clear
7:55 AM 75.2 °F - 69.8 °F 83% 30.09 in 10.0 mi ENE 5.8 mph - N/A   Clear
8:15 AM 75.2 °F - 69.8 °F 83% 30.09 in 10.0 mi ENE 5.8 mph - N/A   Clear
8:35 AM 77.0 °F - 69.8 °F 78% 30.09 in 10.0 mi NE 6.9 mph - N/A   Clear
8:55 AM 78.8 °F - 71.6 °F 78% 30.10 in 10.0 mi ENE 6.9 mph - N/A   Clear
9:15 AM 80.6 °F 84.6 °F 71.6 °F 74% 30.10 in 10.0 mi NE 5.8 mph - N/A   Clear
9:35 AM 80.6 °F 85.4 °F 73.4 °F 79% 30.09 in 10.0 mi ENE 5.8 mph - N/A   Clear
9:55 AM 82.4 °F 88.2 °F 73.4 °F 74% 30.10 in 10.0 mi ENE 4.6 mph - N/A   Clear
10:15 AM 84.2 °F 92.3 °F 75.2 °F 74% 30.10 in 10.0 mi East 5.8 mph - N/A   Clear
10:35 AM 86.0 °F 95.1 °F 75.2 °F 70% 30.10 in 10.0 mi East 3.5 mph - N/A   Clear
10:55 AM 86.0 °F 95.1 °F 75.2 °F 70% 30.11 in 10.0 mi East 6.9 mph - N/A   Clear
11:15 AM 87.8 °F 95.6 °F 73.4 °F 62% 30.11 in 10.0 mi East 6.9 mph - N/A   Clear
11:35 AM 87.8 °F 95.6 °F 73.4 °F 62% 30.11 in 10.0 mi East 6.9 mph - N/A   Clear
11:55 AM 89.6 °F 96.2 °F 71.6 °F 55% 30.10 in 10.0 mi East 5.8 mph - N/A   Clear
12:15 PM 89.6 °F 96.2 °F 71.6 °F 55% 30.10 in 10.0 mi East 4.6 mph - N/A   Clear
12:35 PM 89.6 °F 96.2 °F 71.6 °F 55% 30.09 in 10.0 mi SE 5.8 mph - N/A   Clear
12:55 PM 87.8 °F 93.8 °F 71.6 °F 58% 30.09 in 10.0 mi SSE 3.5 mph - N/A   Scattered Clouds
1:15 PM 87.8 °F 92.6 °F 69.8 °F 55% 30.08 in 10.0 mi SSE 3.5 mph - N/A   Mostly Cloudy
1:35 PM 87.8 °F 95.6 °F 73.4 °F 62% 30.07 in 10.0 mi Calm Calm - N/A   Mostly Cloudy
1:55 PM 87.8 °F 95.6 °F 73.4 °F 62% 30.07 in 10.0 mi Calm Calm - N/A   Mostly Cloudy
2:15 PM 89.6 °F 96.2 °F 71.6 °F 55% 30.06 in 10.0 mi South 3.5 mph - N/A   Scattered Clouds
2:35 PM 89.6 °F 98.2 °F 73.4 °F 59% 30.05 in 10.0 mi SSW 4.6 mph - N/A   Mostly Cloudy
2:55 PM 89.6 °F 96.2 °F 71.6 °F 55% 30.05 in 10.0 mi East 4.6 mph - N/A   Mostly Cloudy
3:15 PM 91.4 °F 100.1 °F 73.4 °F 55% 30.04 in 10.0 mi East 9.2 mph - N/A   Mostly Cloudy
3:35 PM 87.8 °F 93.8 °F 71.6 °F 58% 30.03 in 10.0 mi East 8.1 mph - N/A   Scattered Clouds
3:55 PM 87.8 °F 93.8 °F 71.6 °F 58% 30.02 in 10.0 mi East 4.6 mph - N/A   Clear
4:15 PM 87.8 °F 93.8 °F 71.6 °F 58% 30.01 in 10.0 mi NE 3.5 mph - N/A   Clear
4:35 PM 89.6 °F 96.2 °F 71.6 °F 55% 30.01 in 10.0 mi NNE 4.6 mph - N/A   Clear
4:55 PM 89.6 °F 94.7 °F 69.8 °F 52% 30.01 in 10.0 mi NE 4.6 mph - N/A   Clear
5:15 PM 89.6 °F 96.2 °F 71.6 °F 55% 30.01 in 10.0 mi ENE 3.5 mph - N/A   Clear
5:35 PM 91.4 °F 96.8 °F 69.8 °F 49% 30.02 in 10.0 mi Calm Calm - N/A   Clear
5:55 PM 91.4 °F 96.8 °F 69.8 °F 49% 30.01 in 10.0 mi Calm Calm - N/A   Clear
6:15 PM 91.4 °F 96.8 °F 69.8 °F 49% 30.01 in 10.0 mi ESE 3.5 mph - N/A   Clear
6:35 PM 89.6 °F 94.7 °F 69.8 °F 52% 30.01 in 10.0 mi East 3.5 mph - N/A   Clear
6:55 PM 87.8 °F 93.8 °F 71.6 °F 58% 30.02 in 10.0 mi West 4.6 mph - N/A Rain Light Rain
7:15 PM 86.0 °F 93.4 °F 73.4 °F 66% 30.01 in 10.0 mi South 10.4 mph - N/A   Mostly Cloudy
7:35 PM 82.4 °F 87.2 °F 71.6 °F 70% 30.05 in 10.0 mi SW 8.1 mph - N/A   Scattered Clouds
7:55 PM 82.4 °F 87.2 °F 71.6 °F 70% 30.04 in 10.0 mi WSW 5.8 mph - N/A   Scattered Clouds
8:15 PM 82.4 °F 87.2 °F 71.6 °F 70% 30.05 in 10.0 mi Calm Calm - N/A   Clear
8:35 PM 82.4 °F 87.2 °F 71.6 °F 70% 30.05 in 10.0 mi Calm Calm - N/A   Scattered Clouds
8:55 PM 80.6 °F 85.4 °F 73.4 °F 79% 30.06 in 10.0 mi ESE 3.5 mph - N/A   Clear
9:15 PM 80.6 °F 85.4 °F 73.4 °F 79% 30.05 in 10.0 mi Calm Calm - N/A   Clear
9:35 PM 80.6 °F 85.4 °F 73.4 °F 79% 30.06 in 10.0 mi Calm Calm - N/A   Clear
9:55 PM 82.4 °F 88.2 °F 73.4 °F 74% 30.06 in 10.0 mi SE 4.6 mph - N/A   Clear
10:15 PM 80.6 °F 85.4 °F 73.4 °F 79% 30.07 in 10.0 mi Calm Calm - N/A   Clear
10:35 PM 80.6 °F 84.6 °F 71.6 °F 74% 30.07 in 10.0 mi Calm Calm - N/A   Clear
10:55 PM 80.6 °F 84.6 °F 71.6 °F 74% 30.07 in 10.0 mi East 5.8 mph - N/A   Clear
11:15 PM 80.6 °F 84.6 °F 71.6 °F 74% 30.06 in 10.0 mi Calm Calm - N/A   Clear
11:35 PM 78.8 °F - 71.6 °F 78% 30.06 in 10.0 mi Calm Calm - N/A   Clear
11:55 PM 78.8 °F - 71.6 °F 78% 30.06 in 10.0 mi East 4.6 mph - N/A   Clear